Вернуться в каталог

IMPULSE-2 MIRA

АктивенНаукаSSO
NORAD 62673·PAYLOAD·🇺🇸 United States

Запущен Jan 14, 2025 с Vandenberg Space Force Base

Loading…

Ближайшие Пролёты (ближайшие 24 часа)

TLE

СвежийSource: Space-Track

Эпоха: Sep 13, 2026, 22:43 UTC

1 62673U 25009BS  26256.94708433  .00005443  00000-0  23980-3 0  9990
2 62673  97.4186 329.4354 0002854 176.8342 183.2913 15.22230107150108

Отслеживайте IMPULSE-2 MIRA в реальном времени с AllMySat

Download on the App Store